CALSPHERE 1 1 00900U 64063C 10070.73370183 .00000235 00000-0 25402-3 0 322 2 00900 90.1571 331.5352 0028050 147.6078 212.6810 13.70564525256117 CALSPHERE 2 1 00902U 64063E 10071.12576971 .00000075 00000-0 10000-3 0 2996 2 00902 90.1590 334.3997 0017256 185.1077 174.9905 13.52472913 53588 LCS 1 1 01361U 65034C 10070.84225453 .00000009 00000-0 10000-3 0 1748 2 01361 32.1387 243.5900 0011330 234.3455 125.5988 9.89278058621861 TEMPSAT 1 1 01512U 65065E 10071.07946635 .00000059 00000-0 10000-3 0 3532 2 01512 89.7998 295.3244 0070551 10.0711 350.1830 13.33265657168329 CALSPHERE 4(A) 1 01520U 65065H 10070.94804910 .00000059 00000-0 10000-3 0 5098 2 01520 90.1749 88.0653 0068876 294.1665 65.2283 13.35333472169981 OPS 5712 (P/L 160) 1 02826U 67053A 10070.09398237 .00000440 00000-0 16340-3 0 9634 2 02826 69.9331 274.4113 0006952 163.7230 196.4137 14.38485851205675 OPS 5712 (P/L 153) 1 02874U 67053H 10070.98858537 -.00000024 00000-0 21527-4 0 3625 2 02874 69.9693 238.8043 0007898 326.5295 33.5301 13.95937855177912 SURCAL 150B 1 02909U 67053J 10070.11655844 .00000582 00000-0 17742-3 0 1444 2 02909 69.9541 81.4718 0006906 276.4917 83.5427 14.46749496211571 RIGIDSPHERE 2 (LCS 4) 1 05398U 71067E 10070.48485193 .00000159 00000-0 52186-4 0 8019 2 05398 87.6324 176.1878 0066233 19.6425 340.7307 14.31227348 22791 RADCAT 1 06212U 72076A 10070.70194717 .00003550 00000-0 12528-3 0 9621 2 06212 98.5695 124.9321 0003915 144.0813 216.0683 15.30079560163761